Home > Weather > Bolzano > Past weeks

Flag for Italy Past Weather in Bolzano, Italy — Yesterday and Last 2 Weeks

Now
88 °F

Passing clouds.


Feels Like: 88 °F
Forecast: 59 / 86 °F
Wind: 6 mph from South

Location: Bolzano

Current Time: Aug 25, 2016 at 3:30:30 PM

Latest Report: Aug 25, 2016 at 2:50 PM


Visibility: N/A

Pressure: 30.07 "Hg

Humidity: 43%

Dew Point: 63 °F

Location of BolzanoLocation

Past Weather in Bolzano — Graph

°F

Bolzano Temperature Yesterday

Maximum temperature yesterday: 90 °F (at 4:50 PM)
Minimum temperature yesterday: 59 °F (at 7:50 AM)
Average temperature yesterday: 78 °F

High & Low Weather Summary for the Past Weeks

 TemperatureHumidityPressure
High90 °F (Aug 14, 3:50 PM)94% (Aug 13, 6:50 AM)30.33 "Hg (Aug 13, 6:50 AM)
Low54 °F (Aug 12, 6:50 AM)19% (Aug 11, 6:50 PM)29.74 "Hg (Aug 18, 5:50 PM)
Average75 °F57%30.07 "Hg
* Reported Aug 10 1:50 PM — Aug 25 1:50 PM, Bolzano, Weather by CustomWeather, © 2016

Note: Actual official high and low records may vary slightly from our data, if they occured in-between our weather recording intervals... More about our weather records

Advertising

Bolzano Weather History for the Previous 24 Hours

Scroll right to see more
 ConditionsComfort  
Time TempWeatherWind HumidityBarometerVisibility
1:50 PM
Thu, Aug 25
86 °FPassing clouds.6 mph46%30.07 "HgN/A
12:50 PM84 °FSunny.2 mph48%30.09 "Hg10 mi
11:51 AM81 °FSunny.2 mph51%30.12 "Hg10 mi
10:50 AM77 °FSunny.2 mph57%30.15 "Hg10 mi
9:50 AM75 °FScattered clouds.1 mph61%30.18 "HgN/A
8:50 AM68 °FPartly sunny.2 mph78%30.21 "HgN/A
7:50 AM64 °FPartly sunny.No wind88%30.21 "HgN/A
6:50 AM63 °FPassing clouds.No wind88%30.21 "HgN/A
10:50 PM
Wed, Aug 24
72 °FClear.No wind73%30.15 "Hg10 mi
9:50 PM79 °FPassing clouds.3 mph51%30.12 "HgN/A
8:50 PM79 °FPassing clouds.6 mph51%30.12 "HgN/A
7:50 PM81 °FPassing clouds.9 mph48%30.09 "HgN/A
6:50 PM86 °FSunny.8 mph46%30.07 "Hg10 mi
5:50 PM88 °FSunny.7 mph43%30.07 "Hg10 mi
4:50 PM90 °FSunny.9 mph38%30.09 "Hg10 mi
3:50 PM88 °FPassing clouds.7 mph38%30.09 "HgN/A
Weather by CustomWeather, © 2016

See weather overviewHow to use our weather pages